Burlington, CO

12:36 AM MDT on April 30, 2017 (GMT -0600)
Kit Carson County

Weather History for KITR - January, 2012

Change the Weather History Date:

Friday, January 27, 2012

  Actual Average Record
Temperature  
Mean Temperature 28 °F 30 °F  
Max Temperature 44 °F 42 °F 79 °F (1951)
Min Temperature 11 °F 17 °F -10 °F (1916)
Degree Days  
Heating Degree Days 36    
Moisture  
Dew Point 16 °F    
Average Humidity 52    
Maximum Humidity 77    
Minimum Humidity 29    
Precipitation  
Precipitation T in 0.02 in 0.32 in (1944)
Month to date precipitation 0.01 0.29  
Year to date precipitation 0.01 0.29  
Sea Level Pressure  
Sea Level Pressure 30.06 in    
Wind  
Wind Speed 17 mph (NNW)    
Max Wind Speed 30 mph    
Max Gust Speed 39 mph    
Visibility 10 miles    
Events      
T = Trace of Precipitation, MM = Missing Value Source: NWS Daily Summary

Daily Weather History Graph

Daily Weather History Graph

Search for Another Location

Airport or City:

Trip Planner

Search our weather history database for the weather conditions in past years. The results will help you decide how hot, cold, wet, or windy it might be!

Date:

Astronomy

Jan. 27, 2012 Rise Set
Actual Time 7:00 AM MST 5:03 PM MST
Civil Twilight 6:31 AM MST 5:32 PM MST
Nautical Twilight 5:59 AM MST 6:04 PM MST
Astronomical Twilight 5:27 AM MST 6:36 PM MST
Moon 8:58 AM MST (1/27) 9:54 PM MST (1/27)
Length of Visible Light 11h 00m
Length of Day
10h 02m
Waxing Crescent, 20% of the Moon is Illuminated
Jan 27
Waxing Crescent
Jan 30
First Quarter
Feb 7
Full
Feb 14
Last Quarter
Feb 21
New

Hourly Weather History & Observations

Time (MST) Temp. Windchill Dew Point Humidity Pressure Visibility Wind Dir Wind Speed Gust Speed Precip Events Conditions
12:53 AM 35.1 °F 27.4 °F 19.9 °F 54% 29.73 in 10.0 mi West 10.4 mph - N/A   Overcast
1:53 AM 30.9 °F 24.3 °F 19.9 °F 64% 29.74 in 10.0 mi West 6.9 mph - N/A   Clear
2:53 AM 35.1 °F 26.4 °F 21.0 °F 57% 29.74 in 10.0 mi NW 12.7 mph - N/A   Clear
3:53 AM 36.0 °F 26.7 °F 21.9 °F 57% 29.74 in 10.0 mi NNW 15.0 mph - N/A   Clear
4:53 AM 42.1 °F 32.3 °F 24.1 °F 49% 29.77 in 10.0 mi NNW 24.2 mph 32.2 mph N/A   Clear
5:53 AM 39.9 °F 28.8 °F 24.1 °F 53% 29.83 in 10.0 mi NNW 27.6 mph 35.7 mph N/A   Clear
6:53 AM 37.9 °F 27.1 °F 28.9 °F 70% 29.90 in 10.0 mi NNW 23.0 mph 29.9 mph N/A   Scattered Clouds
7:53 AM 37.0 °F 26.4 °F 30.0 °F 76% 29.95 in 10.0 mi NNW 20.7 mph 28.8 mph N/A   Overcast
8:53 AM 37.0 °F 25.6 °F 28.0 °F 70% 29.99 in 10.0 mi North 24.2 mph 29.9 mph N/A   Mostly Cloudy
9:53 AM 37.0 °F 25.6 °F 19.0 °F 48% 30.02 in 10.0 mi North 24.2 mph 39.1 mph 0.00 in   Mostly Cloudy
10:53 AM 41.0 °F 29.8 °F 19.9 °F 43% 30.04 in 10.0 mi North 29.9 mph 38.0 mph N/A   Clear
11:53 AM 43.0 °F 33.1 °F 15.1 °F 32% 30.02 in 10.0 mi North 26.5 mph 36.8 mph N/A   Clear
12:53 PM 42.1 °F 32.8 °F 12.9 °F 31% 30.06 in 10.0 mi North 21.9 mph 35.7 mph N/A   Overcast
1:53 PM 37.9 °F 26.6 °F 12.9 °F 36% 30.14 in 10.0 mi NNW 25.3 mph 35.7 mph N/A   Overcast
2:53 PM 37.9 °F 27.3 °F 10.9 °F 33% 30.16 in 10.0 mi NNW 21.9 mph 29.9 mph N/A   Scattered Clouds
3:53 PM 37.0 °F 26.2 °F 7.0 °F 29% 30.18 in 10.0 mi NNW 21.9 mph 31.1 mph N/A   Clear
4:53 PM 33.1 °F 22.2 °F 7.0 °F 34% 30.20 in 10.0 mi NNW 17.3 mph 23.0 mph N/A   Clear
5:53 PM 28.9 °F 17.3 °F 10.9 °F 47% 30.27 in 10.0 mi NNW 16.1 mph - N/A   Clear
7:53 PM 26.1 °F 15.6 °F 9.0 °F 49% 30.36 in 10.0 mi NNW 11.5 mph - N/A   Mostly Cloudy
8:53 PM 21.0 °F 9.9 °F 8.1 °F 57% 30.39 in 10.0 mi NNW 10.4 mph - N/A   Clear
9:53 PM 21.0 °F 8.1 °F 10.0 °F 63% 30.38 in 10.0 mi NNW 13.8 mph - N/A   Clear
10:53 PM 15.1 °F 4.2 °F 8.1 °F 74% 30.40 in 10.0 mi WNW 8.1 mph - N/A   Clear
11:53 PM 10.9 °F 0.2 °F 5.0 °F 77% 30.41 in 10.0 mi West 6.9 mph - N/A   Clear